TimeEDT,TemperatureF,Dew PointF,Humidity,Sea Level PressureIn,VisibilityMPH,Wind Direction,Wind SpeedMPH,Gust SpeedMPH,PrecipitationIn,Events,Conditions,WindDirDegrees,DateUTC
12:15 AM,53.4,53.2,99,30.01,10.0,North,3.5,-,N/A,,Scattered Clouds,10,2013-09-14 04:15:00
12:35 AM,53.2,52.5,97,30.02,10.0,Calm,Calm,-,N/A,,Scattered Clouds,0,2013-09-14 04:35:00
12:55 AM,52.7,52.3,99,30.02,10.0,Calm,Calm,-,N/A,,Scattered Clouds,0,2013-09-14 04:55:00
1:15 AM,52.2,52.0,99,30.02,10.0,Calm,Calm,-,N/A,,Scattered Clouds,0,2013-09-14 05:15:00
1:35 AM,51.3,51.1,99,30.02,10.0,Calm,Calm,-,N/A,,Scattered Clouds,0,2013-09-14 05:35:00
1:55 AM,50.7,50.7,100,30.02,10.0,Calm,Calm,-,N/A,,Scattered Clouds,0,2013-09-14 05:55:00
2:15 AM,50.9,50.9,100,30.03,10.0,Calm,Calm,-,N/A,,Scattered Clouds,0,2013-09-14 06:15:00
2:35 AM,50.0,50.0,100,30.02,10.0,Calm,Calm,-,N/A,,Clear,0,2013-09-14 06:35:00
2:55 AM,50.2,50.2,100,30.02,10.0,Calm,Calm,-,N/A,,Clear,0,2013-09-14 06:55:00
3:15 AM,50.0,50.0,100,30.02,10.0,Calm,Calm,-,N/A,,Clear,0,2013-09-14 07:15:00
3:35 AM,49.3,49.3,100,30.03,10.0,Calm,Calm,-,N/A,,Clear,0,2013-09-14 07:35:00
3:55 AM,49.1,49.1,100,30.03,10.0,Calm,Calm,-,N/A,,Clear,0,2013-09-14 07:55:00
4:15 AM,48.7,48.7,100,30.02,10.0,Calm,Calm,-,N/A,,Clear,0,2013-09-14 08:15:00
4:35 AM,47.8,47.8,100,30.03,10.0,Calm,Calm,-,N/A,,Clear,0,2013-09-14 08:35:00
4:55 AM,48.9,48.9,100,30.04,10.0,Calm,Calm,-,N/A,,Scattered Clouds,0,2013-09-14 08:55:00
5:15 AM,49.1,49.1,100,30.04,10.0,Calm,Calm,-,N/A,,Mostly Cloudy,0,2013-09-14 09:15:00
5:35 AM,48.6,48.6,100,30.04,7.0,Calm,Calm,-,N/A,,Mostly Cloudy,0,2013-09-14 09:35:00
5:55 AM,48.7,48.7,100,30.05,7.0,Calm,Calm,-,N/A,,Mostly Cloudy,0,2013-09-14 09:55:00
6:15 AM,48.2,48.2,100,30.06,7.0,Calm,Calm,-,N/A,,Mostly Cloudy,0,2013-09-14 10:15:00
6:35 AM,48.7,48.7,100,30.07,10.0,Calm,Calm,-,N/A,,Scattered Clouds,0,2013-09-14 10:35:00
6:55 AM,48.6,48.6,100,30.07,10.0,Calm,Calm,-,N/A,,Scattered Clouds,0,2013-09-14 10:55:00
7:15 AM,47.8,47.8,100,30.08,10.0,Calm,Calm,-,N/A,,Scattered Clouds,0,2013-09-14 11:15:00
7:35 AM,51.8,51.8,100,30.09,10.0,Calm,Calm,-,N/A,,Mostly Cloudy,0,2013-09-14 11:35:00
7:55 AM,51.6,51.4,99,30.10,10.0,NNW,3.5,-,N/A,,Mostly Cloudy,340,2013-09-14 11:55:00
8:15 AM,53.4,51.6,94,30.12,10.0,Calm,Calm,-,N/A,,Scattered Clouds,0,2013-09-14 12:15:00
8:35 AM,55.0,51.3,87,30.12,10.0,North,3.5,-,N/A,,Scattered Clouds,10,2013-09-14 12:35:00
8:55 AM,56.5,51.1,82,30.13,10.0,North,3.5,-,N/A,,Clear,10,2013-09-14 12:55:00
9:15 AM,58.3,50.7,76,30.14,10.0,North,4.6,-,N/A,,Clear,360,2013-09-14 13:15:00
9:35 AM,60.1,50.2,70,30.14,10.0,North,4.6,-,N/A,,Scattered Clouds,360,2013-09-14 13:35:00
9:55 AM,61.9,50.2,65,30.15,10.0,North,4.6,-,N/A,,Clear,360,2013-09-14 13:55:00
10:15 AM,63.0,49.1,61,30.15,10.0,North,4.6,-,N/A,,Clear,360,2013-09-14 14:15:00
10:35 AM,64.4,49.5,58,30.15,10.0,NNE,4.6,-,N/A,,Clear,20,2013-09-14 14:35:00
10:55 AM,64.9,49.6,58,30.15,10.0,NW,3.5,-,N/A,,Clear,310,2013-09-14 14:55:00
11:15 AM,65.8,49.8,56,30.15,10.0,North,4.6,-,N/A,,Clear,350,2013-09-14 15:15:00
11:35 AM,66.7,50.7,56,30.15,10.0,NNW,4.6,-,N/A,,Clear,340,2013-09-14 15:35:00
11:55 AM,67.5,50.4,54,30.15,10.0,North,4.6,-,N/A,,Clear,360,2013-09-14 15:55:00
12:15 PM,68.2,50.4,53,30.14,10.0,NNW,6.9,-,N/A,,Clear,340,2013-09-14 16:15:00
12:35 PM,68.0,49.1,51,30.14,10.0,North,3.5,-,N/A,,Clear,360,2013-09-14 16:35:00
12:55 PM,69.3,49.5,49,30.14,10.0,NW,4.6,-,N/A,,Clear,310,2013-09-14 16:55:00
1:15 PM,71.1,51.4,50,30.14,10.0,North,3.5,-,N/A,,Clear,10,2013-09-14 17:15:00
1:35 PM,71.2,50.9,49,30.13,10.0,ENE,3.5,-,N/A,,Clear,70,2013-09-14 17:35:00
1:55 PM,70.5,49.8,48,30.13,10.0,Calm,Calm,-,N/A,,Clear,0,2013-09-14 17:55:00
2:15 PM,72.7,51.8,48,30.12,10.0,ENE,5.8,-,N/A,,Scattered Clouds,70,2013-09-14 18:15:00
2:35 PM,72.5,51.8,48,30.12,10.0,East,3.5,-,N/A,,Scattered Clouds,100,2013-09-14 18:35:00
2:55 PM,72.5,50.7,46,30.12,10.0,Calm,Calm,-,N/A,,Clear,0,2013-09-14 18:55:00
3:15 PM,73.0,50.5,45,30.11,10.0,Calm,Calm,-,N/A,,Clear,0,2013-09-14 19:15:00
3:35 PM,73.6,51.3,45,30.10,10.0,Calm,Calm,-,N/A,,Clear,0,2013-09-14 19:35:00
3:55 PM,73.8,50.5,44,30.10,10.0,Calm,Calm,-,N/A,,Clear,0,2013-09-14 19:55:00
4:15 PM,74.3,51.3,44,30.10,10.0,SSW,4.6,-,N/A,,Clear,200,2013-09-14 20:15:00
4:35 PM,74.3,50.5,43,30.10,10.0,Calm,Calm,-,N/A,,Clear,0,2013-09-14 20:35:00
4:55 PM,73.8,50.2,43,30.10,10.0,SE,3.5,-,N/A,,Clear,140,2013-09-14 20:55:00
5:15 PM,73.9,50.4,43,30.11,10.0,Calm,Calm,-,N/A,,Clear,0,2013-09-14 21:15:00
5:35 PM,74.7,50.9,43,30.11,10.0,East,3.5,-,N/A,,Clear,90,2013-09-14 21:35:00
5:55 PM,74.7,51.8,45,30.12,10.0,Calm,Calm,-,N/A,,Clear,0,2013-09-14 21:55:00
6:15 PM,74.3,53.6,48,30.12,10.0,ESE,3.5,-,N/A,,Scattered Clouds,120,2013-09-14 22:15:00
6:35 PM,70.9,57.9,63,30.12,10.0,Calm,Calm,-,N/A,,Mostly Cloudy,0,2013-09-14 22:35:00
6:55 PM,69.3,57.2,65,30.12,10.0,Calm,Calm,-,N/A,,Overcast,0,2013-09-14 22:55:00
7:15 PM,68.7,57.4,67,30.13,10.0,Calm,Calm,-,N/A,,Overcast,0,2013-09-14 23:15:00
7:35 PM,64.8,61.7,90,30.13,10.0,Calm,Calm,-,N/A,,Mostly Cloudy,0,2013-09-14 23:35:00
7:55 PM,61.7,59.9,94,30.13,10.0,Calm,Calm,-,N/A,,Scattered Clouds,0,2013-09-14 23:55:00
8:15 PM,60.1,58.3,94,30.14,10.0,Calm,Calm,-,N/A,,Clear,0,2013-09-15 00:15:00
8:35 PM,59.2,57.6,94,30.14,10.0,Calm,Calm,-,N/A,,Clear,0,2013-09-15 00:35:00
8:55 PM,58.8,57.2,94,30.15,10.0,Calm,Calm,-,N/A,,Clear,0,2013-09-15 00:55:00
9:15 PM,57.9,56.8,96,30.16,10.0,Calm,Calm,-,N/A,,Clear,0,2013-09-15 01:15:00
9:35 PM,57.2,56.5,97,30.17,10.0,North,3.5,-,N/A,,Clear,350,2013-09-15 01:35:00
9:55 PM,58.5,57.6,97,30.17,10.0,Calm,Calm,-,N/A,,Clear,0,2013-09-15 01:55:00
10:15 PM,55.4,54.7,97,30.17,10.0,North,3.5,-,N/A,,Clear,350,2013-09-15 02:15:00
10:35 PM,55.9,55.9,100,30.17,10.0,North,3.5,-,N/A,,Clear,10,2013-09-15 02:35:00
10:55 PM,56.5,56.1,99,30.18,10.0,Calm,Calm,-,N/A,,Clear,0,2013-09-15 02:55:00
11:15 PM,57.2,57.0,99,30.19,10.0,Calm,Calm,-,N/A,,Clear,0,2013-09-15 03:15:00
11:35 PM,55.2,54.9,99,30.20,7.0,North,3.5,-,N/A,,Clear,10,2013-09-15 03:35:00
11:55 PM,55.4,55.2,99,30.20,5.0,Calm,Calm,-,N/A,,Clear,0,2013-09-15 03:55:00